Regional Weather Roundup
Issued by NWS

Home | Current Version | Previous Version | Graphics & Text | Print | Product List | Glossary On
Versions: 1 2 3 4 5 6 7 8 9 10 11 12 13 14 15 16 17 18 19 20 21 22 23 24 25 26 27 28 29 30 31 32 33 34 35 36 37 38 39 40 41 42 43 44 45 46 47 48 49 50
556
ASUS43 KLOT 250703
RWRIL

ILLINOIS REGIONAL WEATHER ROUNDUP
NATIONAL WEATHER SERVICE CHICAGO/ROMEOVILLE IL
200 AM CDT MON JUL 25 2016

NOTE: "FAIR" INDICATES FEW OR NO CLOUDS BELOW 12,000 FEET WITH NO
SIGNIFICANT WEATHER AND/OR OBSTRUCTIONS TO VISIBILITY.

* THESE STATIONS ARE NOT UNDER NWS QUALITY CONTROL. THEY ALSO MAY NOT
  REPORT WEATHER SUCH AS PRECIPITATION OR FOG.

ILZ001-002-007-009-015-016-024-250800-
NORTHWEST ILLINOIS

CITY           SKY/WX    TMP DP  RH WIND       PRES   REMARKS
MOLINE         CLOUDY    76  66  71 N6        29.99R
STERLING*      CLOUDY    74  70  87 N6        29.98S
SAVANNA*       CLOUDY    74  67  79 N6        29.98S
$$

ILZ003-004-008-010-011-017-018-250800-
NORTH CENTRAL ILLINOIS

CITY           SKY/WX    TMP DP  RH WIND       PRES   REMARKS
ROCKFORD       CLOUDY    76  67  73 CALM      29.99R
FREEPORT*      CLOUDY    70  66  87 CALM      30.01R
ROCHELLE*      CLOUDY    72  71  95 W3        29.99S
DE KALB*       MOCLDY    73  71  93 S5        30.00R
$$

ILZ005-006-012>014-019>023-250800-
NORTHEAST ILLINOIS

CITY           SKY/WX    TMP DP  RH WIND       PRES   REMARKS
CHICAGO-OHARE  CLOUDY    75  67  76 SW9       29.97R
CHICAGO-MIDWAY CLOUDY    74  64  71 SW9       29.97R
AURORA         CLOUDY    74  69  85 SW7       29.98S
LANSING*       CLOUDY    73  67  81 W6        29.98R
WAUKEGAN       CLOUDY    76  72  87 VRB3      29.94S
DUPAGE AIRPORT CLOUDY    73  67  81 S6        29.97S
KANKAKEE*      DRIZZLE   70  67  90 SW10      29.99R
WHEELING       CLOUDY    76  67  73 S6        29.97S
MORRIS*        CLOUDY    73  70  88 SW5       29.98R
NORTHERLY ISL    N/A     75  62  64 W13         N/A
$$

LMZ740>746-250800-
SOUTHERN LAKE MICHIGAN

STATION/POSITION SKY/WX   TEMP    WIND        PRES    VSBY  WAVE
                          AIR SEA DIR/SP/G                  HT/PER
                          (F)     (DEG/KT/KT) (MB)    (MI)  (FT/S)
SOUTHERN BUOY              75 73  230/ 10/ 12 1012.1          2/ 5
WILMETTE HARBOR            73 64  270/ 10/ 16   N/A           1/ 2
HARRISON CRIB              77     220/ 21/ 23   N/A
BURNHAM HARBOR             75     230/  7/ 13   N/A
CALUMET HARBOR             74     210/  9/ 13 1014.0R
BURNS HARBOR               74     200/ 16/ 22 1014.6R
MICHIGAN CITY              74     160/ 11/ 13   N/A
MICHIGAN CITY 6N           75 74  220/ 12/ 17   N/A           2/ 3
ST. JOSEPH                 74 74  210/ 14/ 16 1013.5R         3/ 4
$$

ILZ025>027-034>036-040-047-049-050-058-095>099-250800-
WEST-CENTRAL ILLINOIS

CITY           SKY/WX    TMP DP  RH WIND       PRES   REMARKS
QUINCY         CLOUDY    76  71  85 N9        29.99R
GALESBURG*     CLOUDY    73  68  84 NW6       29.99F
MACOMB*        CLOUDY    74  73  94 N6        30.02S
JACKSONVILLE*  CLOUDY    74  70  87 SE8       29.98F
PITTSFIELD*    CLOUDY    78  73  84 E3        30.00R
$$

ILZ028>032-037-038-041>044-048-051>054-059>061-250800-
CENTRAL ILLINOIS

CITY           SKY/WX    TMP DP  RH WIND       PRES   REMARKS
PONTIAC        CLOUDY    73  70  91 SW8G21    29.99F
BLOOMINGTON    CLOUDY    72  68  87 S20       30.02S
DECATUR        TSTM      72  68  87 SW9       30.07R FOG
PEORIA         CLOUDY    76  73  91 SW6       30.00R
LACON*         CLOUDY    75  74  95 SE5       29.98R
LINCOLN*       CLOUDY    74  72  93 S3G20     30.00F
SPRINGFIELD    LGT RAIN  75  72  90 SE7       29.97F
TAYLORVILLE    TSTM      73  73  98 NE5       30.04R
$$

ILZ033-039-045-046-055>057-062-063-250800-
EAST-CENTRAL ILLINOIS

CITY           SKY/WX    TMP DP  RH WIND       PRES   REMARKS
CHAMPAIGN      TSTM      71  69  93 S7        30.02F
MATTOON        TSTM      72  68  87 NW12      30.02F
PARIS*         CLOUDY    70  70  98 CALM      30.03F
$$

ILZ079-100>102-250800-
SOUTHWEST ILLINOIS

CITY           SKY/WX    TMP DP  RH WIND       PRES   REMARKS
ALTON          TSTM      72  71  97 NE5       29.98F
BELLEVILLE     CLOUDY    80  74  82 CALM      29.96F HX  84
CAHOKIA*       TSTM      75  72  90 W10       30.00R FOG
SPARTA*        PTCLDY    78  76  94 CALM      29.97F HX  81
$$

ILZ064>066-069>071-074>076-080>082-084>086-088>090-092>094-250800-
SOUTH-CENTRAL ILLINOIS

CITY           SKY/WX    TMP DP  RH WIND       PRES   REMARKS
CARBONDALE     CLEAR     77  75  93 CALM      29.97F
CAIRO*         CLEAR     77  76  96 CALM      29.97F
EFFINGHAM*     CLOUDY    74  72  91 N6        30.05F
MARION         CLEAR     77  77 100 CALM      29.99F
MT. VERNON     CLOUDY    75  72  88 CALM      29.97F
CENTRALIA*     CLOUDY    78  77  94 CALM      29.97F HX  82
SALEM*         CLOUDY    80  76  87 N22G28    30.01R HX  84
METROPOLIS*    CLEAR     77  76  97 CALM      29.99F FOG
$$

ILZ067-068-072-073-078-083-087-091-250800-
SOUTHEAST ILLINOIS

CITY           SKY/WX    TMP DP  RH WIND       PRES   REMARKS
LAWRENCEVILLE  MOCLDY    76  70  82 N7        30.03R
FLORA*         CLOUDY    79  71  77 NE14      30.03R HX  82
FAIRFIELD*     CLOUDY    76  76  99 CALM      29.99F FOG
HARRISBURG*    PTCLDY    78  78  99 CALM      29.98F HX  81
ROBINSON*      PTCLDY    72  69  88 CALM      30.05S
CARMI*         CLEAR     76  76 100 N5        29.99S FOG
$$

ABBREVIATIONS USED IN REMARKS
   TC - TEMPERATURE IN CELSIUS
  WCI - WIND CHILL INDEX
   HX - HEAT INDEX
  VSB - VISIBILITY
$$





USA.gov is the U.S. government's official web portal to all federal, state and local government web resources and services.